TimeCEST,TemperatureF,Dew PointF,Humidity,Sea Level PressureIn,VisibilityMPH,Wind Direction,Wind SpeedMPH,Gust SpeedMPH,PrecipitationIn,Events,Conditions,WindDirDegrees,DateUTC
12:25 AM,46.4,46.4,100,29.80,5.0,WNW,13.8,-,N/A,,Overcast,300,2013-05-26 22:25:00
12:55 AM,46.4,46.4,100,29.80,5.0,WNW,15.0,-,N/A,,Overcast,300,2013-05-26 22:55:00
1:25 AM,46.4,46.4,100,29.77,5.0,WNW,15.0,-,N/A,,Overcast,300,2013-05-26 23:25:00
1:55 AM,46.4,46.4,100,29.77,5.6,WNW,13.8,-,N/A,,Overcast,300,2013-05-26 23:55:00
2:00 AM,47,46,92,29.79,6,WNW,13.4,,,,Mist,300,2013-05-27 00:00:00
2:25 AM,46.4,46.4,100,29.77,5.0,WNW,12.7,-,N/A,,Overcast,300,2013-05-27 00:25:00
2:55 AM,46.4,46.4,100,29.77,5.0,WNW,15.0,-,N/A,,Overcast,300,2013-05-27 00:55:00
3:25 AM,46.4,46.4,100,29.77,4.3,WNW,13.8,-,N/A,,Overcast,300,2013-05-27 01:25:00
3:55 AM,46.4,44.6,93,29.77,4.3,WNW,12.7,-,N/A,,Overcast,300,2013-05-27 01:55:00
4:25 AM,46.4,44.6,93,29.74,4.3,WNW,13.8,-,N/A,,Overcast,300,2013-05-27 02:25:00
4:55 AM,46.4,44.6,93,29.74,3.7,WNW,12.7,-,N/A,,Overcast,300,2013-05-27 02:55:00
5:00 AM,46,45,96,29.77,3,WNW,11.2,,,,Mist,300,2013-05-27 03:00:00
5:25 AM,46.4,44.6,93,29.74,3.7,WNW,12.7,-,N/A,,Overcast,300,2013-05-27 03:25:00
5:55 AM,46.4,44.6,93,29.77,3.1,WNW,12.7,-,N/A,,Overcast,300,2013-05-27 03:55:00
6:25 AM,46.4,46.4,100,29.77,-9999.0,WNW,9.2,-,N/A,,Overcast,300,2013-05-27 04:25:00
6:55 AM,46.4,46.4,100,29.77,3.1,WNW,11.5,-,N/A,,Overcast,290,2013-05-27 04:55:00
7:25 AM,46.4,46.4,100,29.77,4.3,West,10.4,-,N/A,,Overcast,280,2013-05-27 05:25:00
7:55 AM,48.2,44.6,87,29.77,6.2,WNW,10.4,-,N/A,,Overcast,290,2013-05-27 05:55:00
8:00 AM,48,45,86,29.77,8,West,8.9,,,,Partly Cloudy,280,2013-05-27 06:00:00
8:25 AM,50.0,46.4,87,29.77,6.2,WNW,11.5,-,N/A,,Partly Cloudy,290,2013-05-27 06:25:00
8:55 AM,51.8,46.4,82,29.77,6.2,West,10.4,-,N/A,,Scattered Clouds,280,2013-05-27 06:55:00
9:25 AM,51.8,46.4,82,29.77,6.2,WNW,11.5,-,N/A,,Scattered Clouds,290,2013-05-27 07:25:00
9:55 AM,53.6,48.2,82,29.77,6.2,WNW,11.5,-,N/A,,Scattered Clouds,300,2013-05-27 07:55:00
10:25 AM,55.4,48.2,77,29.77,6.2,WNW,11.5,-,N/A,,Partly Cloudy,300,2013-05-27 08:25:00
10:55 AM,55.4,42.8,63,29.77,6.2,WNW,12.7,-,N/A,,Unknown,300,2013-05-27 08:55:00
11:00 AM,57,44,52,29.80,22,WNW,13.4,,,,Scattered Clouds,300,2013-05-27 09:00:00
11:25 AM,57.2,41.0,55,29.77,6.2,WNW,13.8,-,N/A,,Unknown,300,2013-05-27 09:25:00
11:55 AM,57.2,39.2,51,29.80,6.2,WNW,15.0,-,N/A,,Unknown,300,2013-05-27 09:55:00
12:25 PM,59.0,41.0,51,29.77,6.2,NW,16.1,-,N/A,,Unknown,310,2013-05-27 10:25:00
12:55 PM,59.0,42.8,55,29.77,6.2,WNW,15.0,-,N/A,,Unknown,290,2013-05-27 10:55:00
1:25 PM,60.8,44.6,55,29.80,6.2,WNW,15.0,-,N/A,,Unknown,300,2013-05-27 11:25:00
1:55 PM,62.6,44.6,52,29.80,6.2,NW,11.5,-,N/A,,Unknown,310,2013-05-27 11:55:00
2:00 PM,62,46,44,29.80,25,NNW,11.2,,,,Partly Cloudy,330,2013-05-27 12:00:00
2:25 PM,60.8,44.6,55,29.80,6.2,NNW,11.5,-,N/A,,Unknown,330,2013-05-27 12:25:00
2:55 PM,62.6,44.6,52,29.80,6.2,NNW,10.4,-,N/A,,Unknown,330,2013-05-27 12:55:00
3:25 PM,62.6,42.8,48,29.80,6.2,NNW,9.2,-,N/A,,Unknown,340,2013-05-27 13:25:00
3:55 PM,62.6,42.8,48,29.80,6.2,NW,9.2,-,N/A,,Unknown,320,2013-05-27 13:55:00
4:25 PM,62.6,42.8,48,29.80,6.2,North,8.1,-,N/A,,Unknown,350,2013-05-27 14:25:00
4:55 PM,62.6,41.0,45,29.77,6.2,North,6.9,-,N/A,,Unknown,350,2013-05-27 14:55:00
5:00 PM,64,44,37,29.80,22,North,6.7,,,,Scattered Clouds,350,2013-05-27 15:00:00
5:25 PM,64.4,42.8,45,29.77,6.2,North,5.8,-,N/A,,Unknown,350,2013-05-27 15:25:00
5:55 PM,64.4,42.8,45,29.77,6.2,NNE,4.6,-,N/A,,Unknown,20,2013-05-27 15:55:00
6:25 PM,64.4,42.8,45,29.77,6.2,North,5.8,-,N/A,,Unknown,10,2013-05-27 16:25:00
6:55 PM,64.4,44.6,49,29.77,6.2,North,3.5,-,N/A,,Unknown,350,2013-05-27 16:55:00
7:25 PM,62.6,44.6,52,29.77,6.2,NE,5.8,-,N/A,,Unknown,40,2013-05-27 17:25:00
7:55 PM,60.8,42.8,52,29.77,6.2,NE,6.9,-,N/A,,Unknown,40,2013-05-27 17:55:00
8:00 PM,61,43,41,29.80,25,NE,6.7,,,,Partly Cloudy,50,2013-05-27 18:00:00
8:25 PM,60.8,42.8,52,29.77,6.2,NE,5.8,-,N/A,,Unknown,40,2013-05-27 18:25:00
8:55 PM,59.0,44.6,59,29.77,6.2,NNE,5.8,-,N/A,,Unknown,30,2013-05-27 18:55:00
9:25 PM,57.2,42.8,59,29.80,6.2,NNE,4.6,-,N/A,,Unknown,30,2013-05-27 19:25:00
9:55 PM,53.6,42.8,67,29.80,6.2,NE,4.6,-,N/A,,Unknown,40,2013-05-27 19:55:00
10:25 PM,53.6,42.8,67,29.80,6.2,NE,3.5,-,N/A,,Unknown,40,2013-05-27 20:25:00
10:55 PM,50.0,44.6,82,29.80,6.2,NE,2.3,-,N/A,,Unknown,40,2013-05-27 20:55:00
11:00 PM,50,45,76,29.81,28,NE,2.2,,,,,40,2013-05-27 21:00:00
11:25 PM,50.0,44.6,82,29.80,6.2,NE,2.3,-,N/A,,Unknown,40,2013-05-27 21:25:00
11:55 PM,48.2,44.6,87,29.80,6.2,NE,1.2,-,N/A,,Unknown,40,2013-05-27 21:55:00